{"data":{"norad_id":53074,"intl_designator":"2022-077AH","name":"STARLINK-4310","alt_names":[],"object_type":"PAYLOAD","status":"ACTIVE","operator":null,"country":"US","launch_date":"2022-07-11","launch_site_code":"AFWTR","launch_vehicle":null,"mission":null,"orbit_class":"UNKNOWN","rcs_meters":null,"size_class":null,"mass_kg":null,"dimensions":null,"purposes":["comms"],"wikipedia_slug":null,"has_3d_model":false,"image_url":null,"decayed_at":null,"tle_current":{"epoch":"2026-08-29T07:02:42.434880Z","epoch_age_seconds":1990954,"freshness":"OLD","line1":"1 53074U 22077AH  26241.29354670  .04209684  26113-5  63578-3 0  9991","line2":"2 53074  97.5662  69.2497 0006462 272.7740  87.2816 16.34303096227480","mean_motion":16.34303096,"eccentricity":0.0006462,"inclination_deg":97.5662,"raan_deg":69.2497,"arg_perigee_deg":272.774,"mean_anomaly_deg":87.2816,"bstar":0.00063578,"rev_number":22748,"period_min":88.110950993389,"perigee_km":176.7625468888,"apogee_km":185.23957692001,"semimajor_km":6559.1380619044,"source":"CELESTRAK","updated_at":"2026-08-29T09:01:31.265012Z"}}}